Time,TemperatureF,DewpointF,PressureIn,WindDirection,WindDirectionDegrees,WindSpeedMPH,WindSpeedGustMPH,Humidity,HourlyPrecipIn,Conditions,Clouds,dailyrainin,SoftwareType,DateUTC
2013-07-04 00:02:00,51.0,-99.9,29.79,North,-999,-999.0,-999.0,-999,-99.99,,,-99.99,,2013-07-04 08:02:00,
2013-07-04 06:53:00,43.0,-99.9,29.80,North,-999,-999.0,-999.0,-999,-99.99,,,-99.99,,2013-07-04 14:53:00,
2013-07-04 07:02:00,44.0,-99.9,29.80,North,-999,-999.0,-999.0,-999,-99.99,,,-99.99,,2013-07-04 15:02:00,
2013-07-04 07:11:00,44.0,-99.9,29.80,North,-999,-999.0,-999.0,-999,-99.99,,,-99.99,,2013-07-04 15:11:00,
2013-07-04 07:23:00,44.0,-99.9,29.80,North,-999,-999.0,-999.0,-999,-99.99,,,-99.99,,2013-07-04 15:23:00,
2013-07-04 07:33:00,47.0,-99.9,29.80,North,-999,-999.0,-999.0,-999,-99.99,,,-99.99,,2013-07-04 15:33:00,
2013-07-04 07:43:00,47.0,-99.9,29.80,North,-999,-999.0,-999.0,-999,-99.99,,,-99.99,,2013-07-04 15:43:00,
2013-07-04 07:53:00,48.0,-99.9,29.80,North,-999,-999.0,-999.0,-999,-99.99,,,-99.99,,2013-07-04 15:53:00,
2013-07-04 08:02:00,48.0,-99.9,29.80,North,-999,-999.0,-999.0,-999,-99.99,,,-99.99,,2013-07-04 16:02:00,
2013-07-04 08:11:00,48.0,-99.9,29.80,North,-999,-999.0,-999.0,-999,-99.99,,,-99.99,,2013-07-04 16:11:00,
2013-07-04 08:22:00,50.0,-99.9,29.81,North,-999,-999.0,-999.0,-999,-99.99,,,-99.99,,2013-07-04 16:22:00,
2013-07-04 08:33:00,51.0,-99.9,29.80,North,-999,-999.0,-999.0,-999,-99.99,,,-99.99,,2013-07-04 16:33:00,
2013-07-04 08:43:00,52.0,-99.9,29.80,North,-999,-999.0,-999.0,-999,-99.99,,,-99.99,,2013-07-04 16:43:00,
2013-07-04 08:52:00,52.0,-99.9,29.80,North,-999,-999.0,-999.0,-999,-99.99,,,-99.99,,2013-07-04 16:52:00,
2013-07-04 09:02:00,56.0,-99.9,29.80,North,-999,-999.0,-999.0,-999,-99.99,,,-99.99,,2013-07-04 17:02:00,
2013-07-04 09:12:00,57.0,-99.9,29.80,North,-999,-999.0,-999.0,-999,-99.99,,,-99.99,,2013-07-04 17:12:00,
2013-07-04 09:22:00,57.0,-99.9,29.80,North,-999,-999.0,-999.0,-999,-99.99,,,-99.99,,2013-07-04 17:22:00,
2013-07-04 09:34:00,57.0,-99.9,29.80,North,-999,-999.0,-999.0,-999,-99.99,,,-99.99,,2013-07-04 17:34:00,
2013-07-04 09:43:00,58.0,-99.9,29.80,North,-999,-999.0,-999.0,-999,-99.99,,,-99.99,,2013-07-04 17:43:00,
2013-07-04 09:53:00,58.0,-99.9,29.80,North,-999,-999.0,-999.0,-999,-99.99,,,-99.99,,2013-07-04 17:53:00,
2013-07-04 10:01:00,58.0,-99.9,29.80,North,-999,-999.0,-999.0,-999,-99.99,,,-99.99,,2013-07-04 18:01:00,
2013-07-04 10:11:00,63.0,-99.9,29.81,North,-999,-999.0,-999.0,-999,-99.99,,,-99.99,,2013-07-04 18:11:00,
2013-07-04 10:22:00,63.0,-99.9,29.81,North,-999,-999.0,-999.0,-999,-99.99,,,-99.99,,2013-07-04 18:22:00,
2013-07-04 10:33:00,65.0,-99.9,29.80,North,-999,-999.0,-999.0,-999,-99.99,,,-99.99,,2013-07-04 18:33:00,
2013-07-04 10:43:00,65.0,-99.9,29.80,North,-999,-999.0,-999.0,-999,-99.99,,,-99.99,,2013-07-04 18:43:00,
2013-07-04 10:52:00,65.0,-99.9,29.79,North,-999,-999.0,-999.0,-999,-99.99,,,-99.99,,2013-07-04 18:52:00,
2013-07-04 11:02:00,65.0,-99.9,29.79,North,-999,-999.0,-999.0,-999,-99.99,,,-99.99,,2013-07-04 19:02:00,
2013-07-04 11:12:00,66.0,-99.9,29.79,North,-999,-999.0,-999.0,-999,-99.99,,,-99.99,,2013-07-04 19:12:00,
2013-07-04 11:22:00,67.0,-99.9,29.79,North,-999,-999.0,-999.0,-999,-99.99,,,-99.99,,2013-07-04 19:22:00,
2013-07-04 11:34:00,67.0,-99.9,29.79,North,-999,-999.0,-999.0,-999,-99.99,,,-99.99,,2013-07-04 19:34:00,
2013-07-04 11:43:00,67.0,-99.9,29.79,North,-999,-999.0,-999.0,-999,-99.99,,,-99.99,,2013-07-04 19:43:00,
2013-07-04 11:53:00,67.0,-99.9,29.79,North,-999,-999.0,-999.0,-999,-99.99,,,-99.99,,2013-07-04 19:53:00,
2013-07-04 12:02:00,67.0,-99.9,29.79,North,-999,-999.0,-999.0,-999,-99.99,,,-99.99,,2013-07-04 20:02:00,
2013-07-04 12:11:00,67.0,-99.9,29.79,North,-999,-999.0,-999.0,-999,-99.99,,,-99.99,,2013-07-04 20:11:00,
2013-07-04 12:22:00,67.0,-99.9,29.79,North,-999,-999.0,-999.0,-999,-99.99,,,-99.99,,2013-07-04 20:22:00,
2013-07-04 12:34:00,67.0,-99.9,29.79,North,-999,-999.0,-999.0,-999,-99.99,,,-99.99,,2013-07-04 20:34:00,
2013-07-04 12:42:00,70.0,-99.9,29.79,North,-999,-999.0,-999.0,-999,-99.99,,,-99.99,,2013-07-04 20:42:00,
2013-07-04 12:53:00,72.0,-99.9,29.79,North,-999,-999.0,-999.0,-999,-99.99,,,-99.99,,2013-07-04 20:53:00,
2013-07-04 13:01:00,72.0,-99.9,29.79,North,-999,-999.0,-999.0,-999,-99.99,,,-99.99,,2013-07-04 21:01:00,
2013-07-04 13:12:00,72.0,-99.9,29.79,North,-999,-999.0,-999.0,-999,-99.99,,,-99.99,,2013-07-04 21:12:00,
2013-07-04 13:22:00,72.0,-99.9,29.79,North,-999,-999.0,-999.0,-999,-99.99,,,-99.99,,2013-07-04 21:22:00,
2013-07-04 13:32:00,72.0,-99.9,29.79,North,-999,-999.0,-999.0,-999,-99.99,,,-99.99,,2013-07-04 21:32:00,
2013-07-04 13:43:00,70.0,-99.9,29.80,North,-999,-999.0,-999.0,-999,-99.99,,,-99.99,,2013-07-04 21:43:00,
2013-07-04 13:53:00,70.0,-99.9,29.80,North,-999,-999.0,-999.0,-999,-99.99,,,-99.99,,2013-07-04 21:53:00,
2013-07-04 14:02:00,69.0,-99.9,29.80,North,-999,-999.0,-999.0,-999,-99.99,,,-99.99,,2013-07-04 22:02:00,
2013-07-04 14:12:00,70.0,-99.9,29.80,North,-999,-999.0,-999.0,-999,-99.99,,,-99.99,,2013-07-04 22:12:00,
2013-07-04 14:22:00,70.0,-99.9,29.80,North,-999,-999.0,-999.0,-999,-99.99,,,-99.99,,2013-07-04 22:22:00,
2013-07-04 14:33:00,69.0,-99.9,29.80,North,-999,-999.0,-999.0,-999,-99.99,,,-99.99,,2013-07-04 22:33:00,
2013-07-04 14:43:00,69.0,-99.9,29.80,North,-999,-999.0,-999.0,-999,-99.99,,,-99.99,,2013-07-04 22:43:00,
2013-07-04 14:52:00,68.0,-99.9,29.80,North,-999,-999.0,-999.0,-999,-99.99,,,-99.99,,2013-07-04 22:52:00,
2013-07-04 15:02:00,68.0,-99.9,29.80,North,-999,-999.0,-999.0,-999,-99.99,,,-99.99,,2013-07-04 23:02:00,
2013-07-04 15:12:00,67.0,-99.9,29.80,North,-999,-999.0,-999.0,-999,-99.99,,,-99.99,,2013-07-04 23:12:00,
2013-07-04 15:23:00,67.0,-99.9,29.80,North,-999,-999.0,-999.0,-999,-99.99,,,-99.99,,2013-07-04 23:23:00,
2013-07-04 15:33:00,67.0,-99.9,29.80,North,-999,-999.0,-999.0,-999,-99.99,,,-99.99,,2013-07-04 23:33:00,
2013-07-04 15:43:00,67.0,-99.9,29.80,North,-999,-999.0,-999.0,-999,-99.99,,,-99.99,,2013-07-04 23:43:00,
2013-07-04 15:52:00,67.0,-99.9,29.80,North,-999,-999.0,-999.0,-999,-99.99,,,-99.99,,2013-07-04 23:52:00,
2013-07-04 16:01:00,67.0,-99.9,29.80,North,-999,-999.0,-999.0,-999,-99.99,,,-99.99,,2013-07-05 00:01:00,
2013-07-04 16:12:00,68.0,-99.9,29.80,North,-999,-999.0,-999.0,-999,-99.99,,,-99.99,,2013-07-05 00:12:00,
2013-07-04 16:32:00,68.0,-99.9,29.80,North,-999,-999.0,-999.0,-999,-99.99,,,-99.99,,2013-07-05 00:32:00,
2013-07-04 16:43:00,68.0,-99.9,29.80,North,-999,-999.0,-999.0,-999,-99.99,,,-99.99,,2013-07-05 00:43:00,
2013-07-04 16:52:00,68.0,-99.9,29.80,North,-999,-999.0,-999.0,-999,-99.99,,,-99.99,,2013-07-05 00:52:00,
2013-07-04 17:01:00,68.0,-99.9,29.80,North,-999,-999.0,-999.0,-999,-99.99,,,-99.99,,2013-07-05 01:01:00,
2013-07-04 17:11:00,68.0,-99.9,29.80,North,-999,-999.0,-999.0,-999,-99.99,,,-99.99,,2013-07-05 01:11:00,
2013-07-04 17:22:00,68.0,-99.9,29.80,North,-999,-999.0,-999.0,-999,-99.99,,,-99.99,,2013-07-05 01:22:00,
2013-07-04 17:32:00,68.0,-99.9,29.80,North,-999,-999.0,-999.0,-999,-99.99,,,-99.99,,2013-07-05 01:32:00,
2013-07-04 17:42:00,68.0,-99.9,29.80,North,-999,-999.0,-999.0,-999,-99.99,,,-99.99,,2013-07-05 01:42:00,
2013-07-04 17:52:00,66.0,-99.9,29.82,North,-999,-999.0,-999.0,-999,-99.99,,,-99.99,,2013-07-05 01:52:00,
2013-07-04 18:02:00,66.0,-99.9,29.82,North,-999,-999.0,-999.0,-999,-99.99,,,-99.99,,2013-07-05 02:02:00,
2013-07-04 18:11:00,66.0,-99.9,29.82,North,-999,-999.0,-999.0,-999,-99.99,,,-99.99,,2013-07-05 02:11:00,
2013-07-04 18:22:00,66.0,-99.9,29.82,North,-999,-999.0,-999.0,-999,-99.99,,,-99.99,,2013-07-05 02:22:00,
2013-07-04 18:32:00,66.0,-99.9,29.82,North,-999,-999.0,-999.0,-999,-99.99,,,-99.99,,2013-07-05 02:32:00,
2013-07-04 20:12:00,63.0,-99.9,29.84,North,-999,-999.0,-999.0,-999,-99.99,,,-99.99,,2013-07-05 04:12:00,
2013-07-04 20:22:00,63.0,-99.9,29.84,North,-999,-999.0,-999.0,-999,-99.99,,,-99.99,,2013-07-05 04:22:00,
2013-07-04 20:33:00,62.0,-99.9,29.85,North,-999,-999.0,-999.0,-999,-99.99,,,-99.99,,2013-07-05 04:33:00,
2013-07-04 20:43:00,58.0,-99.9,29.86,North,-999,-999.0,-999.0,-999,-99.99,,,-99.99,,2013-07-05 04:43:00,
2013-07-04 20:53:00,57.0,-99.9,29.87,North,-999,-999.0,-999.0,-999,-99.99,,,-99.99,,2013-07-05 04:53:00,
2013-07-04 21:01:00,57.0,-99.9,29.87,North,-999,-999.0,-999.0,-999,-99.99,,,-99.99,,2013-07-05 05:01:00,
2013-07-04 21:12:00,57.0,-99.9,29.87,North,-999,-999.0,-999.0,-999,-99.99,,,-99.99,,2013-07-05 05:12:00,
2013-07-04 21:22:00,57.0,-99.9,29.87,North,-999,-999.0,-999.0,-999,-99.99,,,-99.99,,2013-07-05 05:22:00,
2013-07-04 21:33:00,56.0,-99.9,29.88,North,-999,-999.0,-999.0,-999,-99.99,,,-99.99,,2013-07-05 05:33:00,
2013-07-04 21:43:00,56.0,-99.9,29.88,North,-999,-999.0,-999.0,-999,-99.99,,,-99.99,,2013-07-05 05:43:00,
2013-07-04 21:52:00,56.0,-99.9,29.88,North,-999,-999.0,-999.0,-999,-99.99,,,-99.99,,2013-07-05 05:52:00,
2013-07-04 22:02:00,55.0,-99.9,29.88,North,-999,-999.0,-999.0,-999,-99.99,,,-99.99,,2013-07-05 06:02:00,
2013-07-04 22:13:00,55.0,-99.9,29.88,North,-999,-999.0,-999.0,-999,-99.99,,,-99.99,,2013-07-05 06:13:00,
2013-07-04 22:23:00,54.0,-99.9,29.89,North,-999,-999.0,-999.0,-999,-99.99,,,-99.99,,2013-07-05 06:23:00,
2013-07-04 22:34:00,54.0,-99.9,29.89,North,-999,-999.0,-999.0,-999,-99.99,,,-99.99,,2013-07-05 06:34:00,
2013-07-04 22:44:00,54.0,-99.9,29.89,North,-999,-999.0,-999.0,-999,-99.99,,,-99.99,,2013-07-05 06:44:00,
2013-07-04 22:53:00,54.0,-99.9,29.90,North,-999,-999.0,-999.0,-999,-99.99,,,-99.99,,2013-07-05 06:53:00,
2013-07-04 23:02:00,54.0,-99.9,29.90,North,-999,-999.0,-999.0,-999,-99.99,,,-99.99,,2013-07-05 07:02:00,
2013-07-04 23:12:00,54.0,-99.9,29.91,North,-999,-999.0,-999.0,-999,-99.99,,,-99.99,,2013-07-05 07:12:00,
2013-07-04 23:23:00,53.0,-99.9,29.91,North,-999,-999.0,-999.0,-999,-99.99,,,-99.99,,2013-07-05 07:23:00,
2013-07-04 23:34:00,53.0,-99.9,29.91,North,-999,-999.0,-999.0,-999,-99.99,,,-99.99,,2013-07-05 07:34:00,
2013-07-04 23:43:00,53.0,-99.9,29.91,North,-999,-999.0,-999.0,-999,-99.99,,,-99.99,,2013-07-05 07:43:00,
2013-07-04 23:53:00,53.0,-99.9,29.91,North,-999,-999.0,-999.0,-999,-99.99,,,-99.99,,2013-07-05 07:53:00,